EW2016 Weather Reports


Display with metric or nautical units.
time (UTC)temp
F
wind
direction
speed
MPH
gust
MPH
rain 1hr
in
rain 24hr
in
rain mn
in
humidity
%
barometer
mb
20260510173047 86 88 0.0 4.0 0.00 0.00 0.00 35 1018.2
20260510171538 85 142 0.0 4.0 0.00 0.00 0.00 38 1018.3
20260510170136 85 123 0.0 4.0 0.00 0.00 0.00 36 1018.3
20260510164610 85 108 1.0 3.0 0.00 0.00 0.00 37 1018.4
20260510163133 83 169 0.0 4.0 0.00 0.00 0.00 44 1018.5
20260510161551 83 356 0.0 3.0 0.00 0.00 0.00 42 1018.6
20260510160148 83 212 0.0 3.0 0.00 0.00 0.00 43 1018.7
20260510154552 81 113 0.0 3.0 0.00 0.00 0.00 45 1018.7
20260510153059 79 158 0.0 3.0 0.00 0.00 0.00 47 1019.1
20260510151546 77 15 0.0 3.0 0.00 0.00 0.00 46 1019.0
20260510150139 76 208 0.0 3.0 0.00 0.00 0.00 53 1019.0
20260510144546 75 103 0.0 2.0 0.00 0.00 0.00 59 1018.8
20260510143053 74 259 0.0 2.0 0.00 0.00 0.00 63 1018.8
20260510141536 73 255 0.0 3.0 0.00 0.00 0.00 67 1018.8
20260510140132 72 202 0.0 1.0 0.00 0.00 0.00 69 1018.9
20260510134558 71 307 0.0 2.0 0.00 0.00 0.00 72 1019.0
20260510133053 69 63 0.0 1.0 0.00 0.00 0.00 78 1018.9
20260510131554 68 218 0.0 1.0 0.00 0.00 0.00 86 1018.8
20260510130145 65 230 0.0 0.0 0.00 0.00 0.00 94 1018.7
20260510124557 63 211 0.0 0.0 0.00 0.00 0.00 96 1018.6
20260510123042 62 207 0.0 1.0 0.00 0.00 0.00 96 1018.4
20260510121539 60 42 0.0 0.0 0.00 0.00 0.00 96 1018.4
20260510120136 58 42 0.0 0.0 0.00 0.00 0.00 96 1018.2
20260510114554 57 42 0.0 0.0 0.00 0.00 0.00 96 1018.1
20260510113052 56 42 0.0 0.0 0.00 0.00 0.00 96 1017.8
20260510111549 56 42 0.0 0.0 0.00 0.00 0.00 96 1017.4
20260510110148 55 42 0.0 0.0 0.00 0.00 0.00 96 1017.3
20260510104550 55 42 0.0 0.0 0.00 0.00 0.00 95 1017.0
20260510103043 55 42 0.0 0.0 0.00 0.00 0.00 95 1017.0
20260510101543 55 42 0.0 0.0 0.00 0.00 0.00 95 1016.7
20260510100140 55 42 0.0 0.0 0.00 0.00 0.00 95 1016.4
20260510094602 55 42 0.0 0.0 0.00 0.00 0.00 95 1016.2
20260510093058 56 42 0.0 0.0 0.00 0.00 0.00 95 1016.0
20260510091551 56 42 0.0 0.0 0.00 0.00 0.00 95 1015.9
20260510090153 56 42 0.0 0.0 0.00 0.00 0.00 95 1015.8
20260510084605 56 42 0.0 0.0 0.00 0.00 0.00 95 1015.8
20260510083045 56 42 0.0 0.0 0.00 0.00 0.00 95 1015.7
20260510081551 56 42 0.0 0.0 0.00 0.00 0.00 95 1015.5
20260510080142 56 42 0.0 0.0 0.00 0.00 0.00 95 1015.5
20260510074537 56 42 0.0 0.0 0.00 0.00 0.00 95 1015.5
20260510073035 57 42 0.0 0.0 0.00 0.00 0.00 95 1015.4
20260510071540 57 42 0.0 0.0 0.00 0.00 0.00 95 1015.2
20260510070134 57 42 0.0 0.0 0.00 0.00 0.00 95 1015.3
20260510064552 57 42 0.0 0.0 0.00 0.00 0.00 95 1015.5
20260510063050 57 42 0.0 0.0 0.00 0.00 0.00 95 1015.4
20260510061548 57 42 0.0 0.0 0.00 0.00 0.00 95 1015.2
20260510060146 57 42 0.0 0.0 0.00 0.00 0.00 95 1015.2
20260510054542 57 42 0.0 0.0 0.00 0.00 0.00 95 1015.5
20260510053041 57 42 0.0 0.0 0.00 0.00 0.00 95 1015.6
20260510051543 57 42 0.0 0.0 0.00 0.00 0.00 95 1015.7
20260510050137 58 42 0.0 0.0 0.00 0.00 0.00 95 1015.9
20260510044538 58 42 0.0 0.0 0.00 0.00 0.00 95 1015.8
20260510043037 58 42 0.0 0.0 0.00 0.00 0.00 95 1016.1
20260510041533 58 42 0.0 0.0 0.00 0.00 0.00 95 1015.9
20260510040133 58 42 0.0 0.0 0.00 0.00 0.00 95 1015.8
20260510034547 58 42 0.0 0.0 0.00 0.00 0.00 95 1015.8
20260510033055 59 42 0.0 0.0 0.00 0.00 0.00 95 1015.7
20260510031547 59 42 0.0 0.0 0.00 0.00 0.00 95 1015.6
20260510030145 59 42 0.0 0.0 0.00 0.00 0.00 95 1015.6
20260510024539 60 42 0.0 0.0 0.00 0.00 0.00 95 1015.6
20260510023036 60 42 0.0 0.0 0.00 0.00 0.00 94 1015.6
20260510021536 61 42 0.0 0.0 0.00 0.00 0.00 94 1015.4
20260510020135 61 42 0.0 0.0 0.00 0.00 0.00 94 1015.3
20260510014550 62 42 0.0 0.0 0.00 0.00 0.00 94 1015.1
20260510013048 62 42 0.0 0.0 0.00 0.00 0.00 93 1014.9
20260510011547 63 42 0.0 0.0 0.00 0.00 0.00 92 1014.5
20260510010147 63 42 0.0 0.0 0.00 0.00 0.00 91 1014.5
20260510004540 65 42 0.0 0.0 0.00 0.00 0.00 89 1014.3
20260510003040 66 42 0.0 0.0 0.00 0.00 0.00 87 1014.2
20260510001542 67 42 0.0 0.0 0.00 0.00 0.00 85 1014.1
20260510000138 68 42 0.0 0.0 0.00 0.00 0.00 83 1013.9
20260509234600 69 42 0.0 0.0 0.00 0.00 0.00 81 1013.9
20260509233051 70 42 0.0 0.0 0.00 0.00 0.00 79 1013.7
20260509231552 71 46 0.0 1.0 0.00 0.00 0.00 77 1013.6
20260509230151 71 9 0.0 1.0 0.00 0.00 0.00 76 1013.4
20260509224544 72 263 0.0 1.0 0.00 0.00 0.00 75 1013.3
20260509223044 73 351 0.0 2.0 0.00 0.00 0.00 74 1013.3
20260509221546 73 286 0.0 2.0 0.00 0.00 0.00 73 1013.3
20260509220146 73 77 0.0 2.0 0.00 0.00 0.00 73 1013.3
20260509214537 73 212 0.0 3.0 0.00 0.00 0.00 74 1013.3
20260509213039 73 116 0.0 5.0 0.00 0.00 0.00 73 1013.3
20260509211538 73 63 0.0 2.0 0.00 0.00 0.00 72 1013.2
20260509210134 73 281 0.0 2.0 0.00 0.00 0.00 72 1013.0
20260509204555 74 285 0.0 5.0 0.00 0.00 0.00 70 1013.1
20260509203051 74 279 0.0 2.0 0.00 0.00 0.00 72 1013.2
20260509201551 74 284 1.0 5.0 0.00 0.00 0.00 71 1013.3
20260509200150 74 32 0.0 3.0 0.00 0.00 0.00 74 1013.2
20260509194549 71 193 0.0 2.0 0.00 0.00 0.00 76 1013.7
20260509193047 71 273 0.0 3.0 0.00 0.00 0.00 75 1013.8
20260509191546 71 135 0.0 4.0 0.00 0.00 0.00 74 1013.9
20260509190145 72 94 1.0 5.0 0.00 0.00 0.00 73 1013.9
20260509184558 73 262 1.0 5.0 0.00 0.00 0.00 70 1013.9
20260509183046 74 295 0.0 5.0 0.00 0.00 0.00 70 1013.8
20260509181549 75 17 0.0 4.0 0.00 0.00 0.00 68 1014.0
20260509180140 73 9 0.0 4.0 0.00 0.00 0.00 68 1014.4
20260509174540 73 86 0.0 4.0 0.00 0.00 0.00 69 1014.5